Location: Mountain Grove
(34.0887°N, 86.6172°W)
Time: 15:09:34
(UTC+00:00)

Cosmos 1271 Rocket - Pass Details

Date: 14 July 2020
Orbit: 498 x 546 km, 81.2° (Epoch: 13 August)

Event Time Altitude Azimuth Distance (km) Brightness Sun altitude
Rises 09:04:51 0° 357° (N) 2,608 6.9 -17.9°
Reaches altitude 10° 09:07:02 10° 2° (N) 1,714 5.9 -17.6°
Maximum altitude 09:10:43 55° 80° (E) 607 3.3 -17.1°
Drops below altitude 10° 09:14:21 10° 159° (SSE) 1,691 5.1 -16.5°
Enters shadow 09:14:54 - 161° (SSE) 1,917 5.4 -16.4°
